Flag for Germany Weather past 2 weeks in Fürstenwalde/Spree, Brandenburg, Germany

Now
44 °F

Light rain. Overcast.


Feels Like: 42 °F
Forecast: 44 / 57 °F
Wind: 5 mph from Southeast

Location: Lindenberg

Current Time: Oct 25, 2014 at 7:00:58 PM

Latest Report: Oct 25, 2014 at 6:00 PM


Visibility: 4 mi

Pressure: 30.15 "Hg

Humidity: 92%

Dew point: 42 °F

Location of Fürstenwalde/SpreeLocation

Historic Weather in Fürstenwalde/Spree — Graph

°F

Fürstenwalde/Spree temperature yesterday

Maximum temperature yesterday: 45 °F (at 12:00 AM)
Minimum temperature yesterday: 42 °F (at 10:00 PM)
Average temperature yesterday: 44 °F

Past Weeks' High & Low Weather Summary

 TemperatureHumidityPressure
High70 °F (Oct 19, 4:00 PM)100% (Oct 17, 12:00 AM)30.30 "Hg (Oct 17, 12:00 AM)
Low37 °F (Oct 25, 6:00 AM)66% (Oct 19, 3:00 PM)29.44 "Hg (Oct 22, 12:00 AM)
Average54 °F92%29.92 "Hg
* Reported Oct 10 6:00 PM — Oct 25 6:00 PM, Fürstenwalde/Spree, Weather by CustomWeather, © 2014

Note: Actual official high and low records may vary slightly from our data, if they occured in-between our weather recording intervals... More about our weather records

Advertising

Fürstenwalde/Spree weather history for previous 24 hours

 ConditionsComfort  
Time TempWeatherWind HumidityBarometerVisibility
6:00 PM
Oct 25
44 °FLight rain. Overcast.5 mph92%30.15 "Hg4 mi
5:00 PM44 °FOvercast.3 mph91%30.15 "Hg5 mi
4:00 PM44 °FFog.2 mph90%30.15 "Hg4 mi
3:00 PM43 °FFog.3 mph91%30.15 "Hg3 mi
2:00 PM43 °FFog.3 mph91%30.15 "Hg2 mi
1:00 PM41 °FFog.3 mph94%30.16 "Hg2 mi
12:00 PM40 °FFog.2 mph97%30.16 "Hg1 mi
11:00 AM39 °FFog.3 mph100%30.16 "Hg1 mi
10:00 AM38 °FFog.2 mph100%30.16 "Hg1 mi
9:00 AM38 °FFog.3 mph100%30.17 "Hg0 mi
8:00 AM38 °FFog.2 mph100%30.16 "Hg0 mi
7:00 AM38 °FFog.3 mph100%30.16 "Hg0 mi
6:00 AM37 °FFog.5 mph99%30.16 "Hg0 mi
4:00 AM38 °FFog.3 mph96%30.18 "Hg2 mi
3:00 AM39 °FFog.5 mph95%30.19 "Hg2 mi
2:00 AM40 °FFog.2 mph94%30.21 "Hg4 mi
1:00 AM42 °FLow clouds.3 mph93%30.22 "Hg5 mi
12:00 AM42 °FLow clouds.5 mph93%30.22 "Hg6 mi
11:00 PM
Oct 24
42 °FLow clouds.5 mph93%30.22 "Hg5 mi
10:00 PM42 °FFog.5 mph93%30.23 "Hg4 mi
9:00 PM42 °FFog.5 mph93%30.23 "Hg4 mi
8:00 PM43 °FFog.5 mph93%30.24 "Hg4 mi
7:00 PM43 °FFog.3 mph93%30.24 "Hg2 mi
Weather by CustomWeather, © 2014

See weather overviewHow to use our weather pages